Showing default

CBERS 4A, 44883

Orbit data source: Space-Track

CBERS 4A, 44883 is a CN and BR payload satellite in SSO that was launched on Fri, 20 Dec 2019 UTC via a CHANG ZHENG 4B launch vehicle from the Taiyaun Space Center, China (TSC). Payload-class satellites include a variety of spacecraft equipped with specific instruments for various scientific and technological missions. These include communications satellites like Starlink; space stations such as the ISS; scientific satellites like the Hubble; Earth observation satellites from companies like Planet Labs, Umbra, and HawkEye 360; GPS; miniature CubeSats for education and research; and military/defense satellites.

Loading next visibility...
Identifier
44883, 2019-093E
Orbit
SSO
Country
Flag of CNCN / CHBZ
Flag of BRBR / CHBZ
Related business
Manufacturer
CAST/INPE
Mission
Operational Civil Imaging
Bus & Motor
ZY, AOCS 20N
Mass
1,980 kg wet, ~1,900 kg dry
Launch date (UTC)
2019-12-20 (7 years ago)
Launch vehicle
CHANG ZHENG 4B
Launch site
Taiyaun Space Center, China (TSC)
Object type
Payload
Rocket body
Debris
Shape & HBR
Box + 1 Pan, 4.5 m
Radar Cross Section
22.196 m², Large (>1 m²)

Expand to show TLE details & history
Last TLE update: 6 hours ago

TLE from 6 hours ago
0 CBERS 4A
1 44883U 19093E   26208.61567470  .00001294  00000-0  17207-3 0  9999
2 44883  98.0178 276.0867 0002107 118.8890 241.2534 14.81463805357065
Epoch: 2026-07-27T14:46Z
TLE epoch observation values (Epoch: 2026-07-27T14:46:34.294Z)
Latitude
Longitude
109.1471°
Altitude
628.437 km
Speed
7.544 km/s
True Right ascension
18h 24m 20s
True Declination
0° 00' 00"
Sunlit
Object was in full shadow at epoch
Visualization orbit readout
Latitude
Unknown
Longitude
Unknown
Altitude
Unknown
Speed
Unknown
Apparent Right ascension
Unknown
Apparent Declination
Unknown
Sunlit
N/A
Visualization observer readout
Local Sidereal Time
10:29:29
Azimuth
Unknown
Elevation
Unknown
Doppler factor
Unknown
Orbital elements
Apogee altitude
623.227 km
Perigee altitude
620.277 km
Semi-major axis
6,999.889 km
Eccentricity
0.00021
Inclination
98.0178°
RAAN
276.0867°
Arg. of periapsis
118.889°
True anomaly
241.23223°
Mean anomaly
241.2534°
Eccentric anomaly
241.24282°
Mean motion
3.70601 °/min
Orbital period
97.14 mins
BSTAR
0.00017207
Loading maneuver chart data...
Computing Atmospheric mass density...
Loading historical data...
Loading historical data...
Loading historical data...
Loading historical data...
Loading historical data...
Loading historical data...
Loading historical data...

Documentation

Showing up to 5 results
|